Вернуться в каталог

STARLINK-30413

АктивенСвязьVLEO
NORAD 57814·PAYLOAD·🇺🇸 United States

Запущен Sep 9, 2023 с Cape Canaveral Space Force Station

Loading…

Ближайшие Пролёты (ближайшие 24 часа)

TLE

СвежийSource: CelesTrak SupGP

Эпоха: Sep 15, 2026, 03:21 UTC

1 57814C 23138G   26258.14006944 -.00049783  00000+0 -18032-2 0  2589
2 57814  42.9990 244.7520 0001249 268.2663 200.4138 15.27602381    17

Отслеживайте STARLINK-30413 в реальном времени с AllMySat

Download on the App Store